Retour au catalogue

FREGAT R/B

ActifMEO
NORAD 40891·ROCKET BODY·🇷🇺 Russia

Lancé Sep 11, 2015 depuis Guiana Space Centre

Loading…

Prochains Passages (prochaines 24 heures)

TLE

FraisSource: Space-Track

Époque: Sep 14, 2026, 03:34 UTC

1 40891U 15045C   26257.14913695  .00000011  00000-0  00000-0 0  9999
2 40891  54.7744 222.4937 0028768 234.8821 124.8021  1.67827818 67495

Suivez FREGAT R/B en temps réel avec AllMySat

Download on the App Store